407P/PanSTARRS-Fuls (2026)

Japanese version
Home page
Updated on December 20, 2025

---------------------------------------------------------------------

* Profile

* Orbital Elements

Epoch 2026 July 19.0 TT = JDT 2461240.5                                         
T 2026 July 25.43854 TT                                 Rudenko                 
q   2.1834889            (2000.0)            P               Q                  
n   0.15098736     Peri.   92.98721     -0.98944088     -0.11832955             
a   3.4928156      Node    80.22779     +0.07409689     -0.90926664             
e   0.3748628      Incl.    4.87185     +0.12456486     -0.39903921             
P   6.53                                                                        
From 739 observations 2013 May 5-2020 June 12, mean residual 0".7.              

* Magnitudes Graph

        m1 = 11.0 + 5 log d + 15.0 log r

---------------------------------------------------------------------

The orbital elements are published on M.P.E.C. 2021-F20.
The magnitudes graphs are made with Comet for Windows.

---------------------------------------------------------------------

Copyright(C) Seiichi Yoshida (comet@aerith.net). All rights reserved.